Regional Weather Roundup
Issued by NWS San Angelo, TX

Home | Current Version | Previous Version | Text Only | Print | Product List | Glossary On
Versions: 1 2 3 4 5 6 7 8 9 10 11 12 13 14 15 16 17 18 19 20 21 22 23 24 25 26 27 28 29 30 31 32 33 34 35 36 37 38 39 40 41 42 43 44 45 46 47 48 49 50
000
ASUS44 KSJT 020710
RWRSJT
WEST CENTRAL TEXAS REGIONAL WEATHER ROUNDUP
NATIONAL WEATHER SERVICE SAN ANGELO TX
200 AM CDT TUE SEP 02 2014

NOTE: "FAIR" INDICATES FEW OR NO CLOUDS BELOW 12,000 FEET WITH NO
SIGNIFICANT WEATHER AND/OR OBSTRUCTIONS TO VISIBILITY.

TXZ049-054-064>066-071>073-076>078-098-099-113-114-127-128-139-140-
154-155-168>170-020800
...LOCATIONS ACROSS WEST CENTRAL TEXAS...

CITY           SKY/WX    TMP DP  RH WIND       PRES   REMARKS
SAN ANGELO     CLEAR     83  64  52 S12       29.91R
ABILENE        CLEAR     84  63  49 S17       29.89R
DYESS AFB      CLEAR     84  64  50 S17G25    29.88R
JUNCTION       CLEAR     81  69  67 S13G21    29.94S
SWEETWATER     CLEAR     83  60  46 S17       29.94S
BROWNWOOD      PTCLDY    82  68  61 S13       29.92R
COLEMAN        SUNNY     81  64  56 S10       29.92R
SONORA         CLEAR     81  66  61 S12       29.98S
OZONA          FAIR      79  61  53 S10       29.96F
BRADY          CLEAR     81  70  69 SE10      29.94S
$$

TEXAS PANHANDLE/OKLAHOMA PANHANDLE

CITY           SKY/WX    TMP DP  RH WIND       PRES   REMARKS
AMARILLO       CLEAR     73  63  70 SE14      29.91F
BORGER         CLEAR     75  66  73 E10       29.91S
CANADIAN       CLEAR     73  69  88 NE5       29.88F
DALHART        CLEAR     68  62  81 N8        29.98R
DUMAS          SUNNY     68  64  85 E10       29.95S
GUYMON         NOT AVBL
HEREFORD       SUNNY     68  62  80 CALM      29.94S
PAMPA          SUNNY     70  65  85 E9        29.92S
PERRYTON       PTCLDY    68  66  92 E14G21    29.92F
$$

SOUTHERN PANHANDLE/SOUTH PLAINS/ROLLING PLAINS

CITY           SKY/WX    TMP DP  RH WIND       PRES   REMARKS
LUBBOCK        CLEAR     83  60  45 S20       29.92R
SNYDER         CLEAR     83  61  47 S13G20    29.91S
CHILDRESS      CLEAR     85  61  44 S14       29.84F
SEMINOLE       SUNNY     82  58  44 S14       29.95S
$$

PERMIAN BASIN

CITY           SKY/WX    TMP DP  RH WIND       PRES   REMARKS
MIDLAND        CLEAR     83  60  45 S14       29.91F
ODESSA         CLEAR     83  59  44 S15       29.93S
WINK           CLEAR     85  61  44 SE15      29.89S
$$

FAR WEST/SOUTHWEST MOUNTAINS/TRANS PECOS

CITY           SKY/WX    TMP DP  RH WIND       PRES   REMARKS
ALPINE         SUNNY     75  58  54 SW5       30.09S
DRYDEN           N/A     89  58  34 E14       29.89S
EL PASO        PTCLDY    81  38  21 S5        29.97S
FORT STOCKTON  CLEAR     81  60  48 S15       29.92S
GUADALUPE PASS CLEAR     77  39  25 W15       30.10F
MARFA          CLEAR     70  55  60 SW3       30.10R
PECOS          SUNNY     83  58  42 E9        29.86S
$$

DALLAS/FORT WORTH METROPLEX

CITY           SKY/WX    TMP DP  RH WIND       PRES   REMARKS
DFW AIRPORT    CLEAR     85  70  60 S17G24    29.88F
FTW MEACHAM    CLEAR     85  68  56 S14       29.88S
DAL-EXECUTIVE  CLEAR     84  71  65 S12G18    29.90S
GRAND PRAIRIE  CLEAR     84  68  59 SE12G20   29.91S
ADDISON        CLEAR     85  69  60 S14G20    29.91S
MESQUITE       SUNNY     81  71  71 SE9       29.91S
LANCASTER      SUNNY     81  70  70 S10G16    29.92S
$$

NORTH CENTRAL TEXAS

CITY           SKY/WX    TMP DP  RH WIND       PRES   REMARKS
SHRMAN/DENISON SUNNY     82  69  63 S16G22    29.88F
GAINESVILLE    CLEAR     81  68  65 SE13      29.89F
BRIDGEPORT     SUNNY     83  65  53 S9G16     29.89S
DENTON         CLEAR     84  68  58 S16G25    29.88S
WAXAHACHIE     SUNNY     81  68  65 S9        29.92F
GRANBURY       SUNNY     86  68  55 SE15      29.90S
$$

WESTERN NORTH TEXAS

CITY           SKY/WX    TMP DP  RH WIND       PRES   REMARKS
WICHITA FALLS  CLEAR     84  67  56 S17       29.81F
VERNON         SUNNY     86  64  46 S12       29.83S
BRECKENRIDGE   SUNNY     85  66  53 S13G20    29.87S
COMANCHE         N/A     81  67  62 S12G17    29.92R
$$

CENTRAL AND SOUTH CENTRAL TEXAS

CITY           SKY/WX    TMP DP  RH WIND       PRES   REMARKS
AUSTIN/BERGSTM MOCLDY    80  74  81 S6        29.93S
WACO           CLEAR     82  71  69 S14       29.92R
HILLSBORO      SUNNY     82  68  62 S14       29.92S
TEMPLE         CLEAR     81  66  61 S15       29.93S
KILLEEN-GRAY   CLEAR     81  72  74 SE12      29.93S
FORT HOOD      CLEAR     82  71  69 SE13      29.93S
GEORGETOWN     CLEAR     81  73  78 S8        29.95S
LAGO VISTA     FAIR      79  71  75 S8G16     29.97R
SAN MARCOS     MOCLDY    81  72  74 S9        29.95S
NEW BRAUNFELS  PTCLDY    78  74  87 S7        29.92F
RANDOLPH AFB   MOCLDY    79  73  83 S12       29.94F
SAN ANTONIO    MOCLDY    81  74  79 SE12      29.94S
STINSON        PTCLDY    80  75  84 SE8       29.91F
PLEASANTON     NOT AVBL
LA GRANGE      PTCLDY    79  76  92 SE3       29.91S
GIDDINGS       MOSUNNY   78  74  86 S3        29.97S
$$

EAST TEXAS

CITY           SKY/WX    TMP DP  RH WIND       PRES   REMARKS
PARIS          CLEAR     75  66  73 S6        29.92F
CLARKSVILLE    NOT AVBL
TYLER          CLEAR     80  74  81 S10       29.95S
LONGVIEW       CLEAR     79  74  84 S8        29.95S
PALESTINE      SUNNY     78  74  87 SE5       29.96S
NACOGDOCHES    CLOUDY    79  75  89 SE5       29.97S
$$

TEXAS HILL COUNTRY AND EDWARDS PLATEAU

CITY           SKY/WX    TMP DP  RH WIND       PRES   REMARKS
LLANO          SUNNY     82  70  65 S5        29.96S
HORSESHOE BAY  FAIR      80  69  67 S7        29.94R
KERRVILLE      CLEAR     76  70  81 SE7       29.97S
FREDERICKSBRG  CLEAR     77  69  75 S3        29.97S
ROCKSPRINGS    SUNNY     79  68  69 SE15G23   29.99F
HONDO          CLEAR     80  73  79 SE10      29.95S
UVALDE         SUNNY     81  70  69 SE12      29.92S
DEL RIO        CLEAR     86  70  58 SE13      29.87R
$$

SOUTHEAST TEXAS

CITY           SKY/WX    TMP DP  RH WIND       PRES   REMARKS
COLLEGE STN    PTCLDY    80  75  84 S7        29.93S
CALDWELL       MOSUNNY   77  75  94 SE6       29.97R
CROCKETT       MOSUNNY   81  79  94 CALM      29.98S
BRENHAM        CLEAR     79  76  92 SE3       29.93F
HUNTSVILLE     CLEAR     79  75  87 S6        29.95R
CONROE         CLEAR     76  75  97 SE5       29.95S
HOUSTON BUSH   PTCLDY    79  77  94 S5        29.93F
HOUSTON HOBBY  PTCLDY    80  77  90 S5        29.92F
PERLAND        CLEAR     81  77  88 SE5       29.94F
WHARTON        MOSUNNY   77  76  95 SE3       29.92F
$$

THE UPPER TEXAS COAST

CITY           SKY/WX    TMP DP  RH WIND       PRES   REMARKS
ORANGE         SUNNY     81  81 100 SE6       29.96S
PORT ARTHUR    CLEAR     80  77  90 S5        29.94S
GALVESTON      PTCLDY    84  77  79 S13       29.94F
ANGLETON       CLEAR     81  77  88 S9        29.92F
BAY CITY       SUNNY     82  82 100 SE6       29.91F
$$

TEXAS COASTAL BEND, RIO GRANDE PLAINS DEEP SOUTH TEXAS

CITY           SKY/WX    TMP DP  RH WIND       PRES   REMARKS
VICTORIA       CLEAR     81  78  91 SE8       29.91F
BEEVILLE       FAIR      79  78  97 SE6       29.90F
ROCKPORT       CLEAR     84  77  79 SE16      29.89F
PORT ARANSAS   MOSUNNY   83  77  82 SE13G20   29.89F
PORT LAVACA    SUNNY     80  77  90 SE7       29.90F
CORPUS CHRISTI PTCLDY    82  77  84 SE10      29.89F
KINGSVILLE NAS PTCLDY    80  79  96 SE8       29.89F
COTULLA        CLEAR     82  73  74 SE10      29.90S
LAREDO         CLEAR     83  74  74 SE13G20   29.91S
BROWNSVILLE    CLEAR     81  78  91 E8        29.87F
PORT ISABEL    CLEAR     84  76  76 SE13      29.87F
HEBBRONVILLE   CLOUDY    80  76  87 SE9       29.92S
MCALLEN        CLEAR     81  77  88 SE6       29.88F
WESLACO        NOT AVBL
FALFURRIAS     SUNNY     70  68  92 CALM      29.88F
EDINBURG       SUNNY     82  76  83 SE6       29.88F
$$



USA.gov is the U.S. government's official web portal to all federal, state and local government web resources and services.